ETD204 OMDB-OOMS

Flight info

Callsign ETD204
Flight time N/A
Altitude 25000
Route ANVIX L223 TARDI N629 MUSUK T511 MCT
Aircraft A20N/M-SDE2E3FGHIRWXY/LB1

Departure

Time 2026-04-30 21:46
Airport Dubai International Airport (OMDB)

Arrival

Time N/A
Airport Muscat International Airport (OOMS)
Time Latitude Longitude Altitude Speed Heading
2026-04-30 21:23 25.25744 55.37566 31 ft 0 kts 114°
2026-04-30 21:29 25.25765 55.37515 31 ft 3 kts 114°
2026-04-30 21:30 25.25773 55.37494 31 ft 0 kts 114°
2026-04-30 21:33 25.25770 55.37497 31 ft 1 kts 138°
2026-04-30 21:33 25.25711 55.37486 31 ft 6 kts 202°
2026-04-30 21:33 25.25676 55.37464 31 ft 6 kts 213°
2026-04-30 21:34 25.25645 55.37443 31 ft 5 kts 212°
2026-04-30 21:34 25.25588 55.37404 31 ft 5 kts 211°
2026-04-30 21:34 25.25561 55.37386 31 ft 4 kts 211°
2026-04-30 21:35 25.25537 55.37370 31 ft 4 kts 211°
2026-04-30 21:35 25.25514 55.37357 32 ft 3 kts 201°
2026-04-30 21:35 25.25499 55.37354 32 ft 1 kts 180°
2026-04-30 21:35 25.25496 55.37355 32 ft 0 kts 167°
2026-04-30 21:36 25.25491 55.37357 32 ft 1 kts 159°
2026-04-30 21:37 25.25443 55.37387 33 ft 4 kts 169°
2026-04-30 21:37 25.25426 55.37387 35 ft 5 kts 184°
2026-04-30 21:37 25.25396 55.37384 37 ft 2 kts 179°
2026-04-30 21:37 25.25390 55.37385 36 ft 4 kts 174°
2026-04-30 21:38 25.25336 55.37438 37 ft 12 kts 122°
2026-04-30 21:38 25.25291 55.37517 40 ft 12 kts 120°
2026-04-30 21:38 25.25249 55.37594 39 ft 11 kts 122°
2026-04-30 21:38 25.25211 55.37663 41 ft 10 kts 121°
2026-04-30 21:39 25.25172 55.37730 41 ft 10 kts 121°
2026-04-30 21:39 25.25134 55.37802 40 ft 11 kts 121°
2026-04-30 21:39 25.25091 55.37878 40 ft 12 kts 122°
2026-04-30 21:39 25.25050 55.37953 40 ft 11 kts 118°
2026-04-30 21:40 25.25011 55.38023 40 ft 10 kts 124°
2026-04-30 21:40 25.24973 55.38093 38 ft 11 kts 121°
2026-04-30 21:40 25.24934 55.38163 37 ft 11 kts 121°
2026-04-30 21:40 25.24898 55.38229 39 ft 10 kts 121°
2026-04-30 21:41 25.24865 55.38287 41 ft 8 kts 123°
2026-04-30 21:41 25.24837 55.38337 41 ft 7 kts 121°
2026-04-30 21:41 25.24812 55.38382 42 ft 7 kts 124°
2026-04-30 21:41 25.24783 55.38411 43 ft 5 kts 156°
2026-04-30 21:42 25.24766 55.38414 44 ft 0 kts 180°
2026-04-30 21:42 25.24765 55.38414 44 ft 0 kts 180°
2026-04-30 21:42 25.24751 55.38410 45 ft 2 kts 195°
2026-04-30 21:42 25.24747 55.38408 42 ft 0 kts 198°
2026-04-30 21:43 25.24743 55.38407 43 ft 4 kts 200°
2026-04-30 21:43 25.24724 55.38397 46 ft 1 kts 207°
2026-04-30 21:44 25.24722 55.38396 46 ft 0 kts 207°
2026-04-30 21:44 25.24721 55.38395 43 ft 2 kts 208°
2026-04-30 21:44 25.24678 55.38365 48 ft 9 kts 219°
2026-04-30 21:44 25.24656 55.38313 49 ft 7 kts 271°
2026-04-30 21:45 25.24674 55.38266 48 ft 6 kts 301°
2026-04-30 21:45 25.24697 55.38223 48 ft 10 kts 300°
2026-04-30 21:45 25.24858 55.37934 41 ft 84 kts 301°
2026-04-30 21:45 25.25305 55.37114 37 ft 166 kts 301°
2026-04-30 21:46 25.26026 55.35809 149 ft 216 kts 300°
2026-04-30 21:46 25.26806 55.34374 909 ft 217 kts 301°
2026-04-30 21:46 25.27579 55.33015 1845 ft 214 kts 302°
2026-04-30 21:46 25.28392 55.31571 2507 ft 221 kts 302°
2026-04-30 21:47 25.29168 55.30063 2791 ft 225 kts 292°
2026-04-30 21:47 25.29219 55.28366 2981 ft 238 kts 255°
2026-04-30 21:47 25.28547 55.26668 3621 ft 239 kts 245°
2026-04-30 21:47 25.28034 55.25559 4130 ft 237 kts 245°
2026-04-30 21:48 25.27281 55.23922 4927 ft 235 kts 245°
2026-04-30 21:48 25.26546 55.22278 5664 ft 234 kts 245°
2026-04-30 21:48 25.25850 55.20690 6339 ft 234 kts 246°
2026-04-30 21:48 25.25168 55.19112 6692 ft 234 kts 246°
2026-04-30 21:49 25.24427 55.17504 6797 ft 236 kts 238°
2026-04-30 21:49 25.23109 55.16413 6810 ft 245 kts 200°
2026-04-30 21:49 25.21365 55.16328 6817 ft 260 kts 177°
2026-04-30 21:49 25.19551 55.16629 6805 ft 266 kts 169°
2026-04-30 21:50 25.17923 55.17665 6801 ft 275 kts 134°
2026-04-30 21:50 25.16899 55.19531 6813 ft 291 kts 116°
2026-04-30 21:50 25.16057 55.21578 6805 ft 299 kts 115°
2026-04-30 21:50 25.15182 55.23656 6799 ft 301 kts 117°
2026-04-30 21:51 25.14253 55.25747 6797 ft 301 kts 118°
2026-04-30 21:51 25.13305 55.27810 6803 ft 301 kts 118°
2026-04-30 21:51 25.12341 55.29863 6804 ft 301 kts 118°
2026-04-30 21:51 25.11423 55.31795 6804 ft 301 kts 119°
2026-04-30 21:52 25.10442 55.33978 6805 ft 301 kts 116°
2026-04-30 21:52 25.09572 55.36066 6807 ft 301 kts 115°
2026-04-30 21:52 25.08697 55.38195 6821 ft 301 kts 115°
2026-04-30 21:52 25.07825 55.40318 7102 ft 305 kts 115°
2026-04-30 21:53 25.06994 55.42399 7425 ft 304 kts 114°
2026-04-30 21:53 25.06145 55.44593 7986 ft 308 kts 114°
2026-04-30 21:53 25.05399 55.46533 8488 ft 309 kts 114°
2026-04-30 21:53 25.04563 55.48706 8766 ft 310 kts 114°
2026-04-30 21:54 25.03715 55.50907 8823 ft 311 kts 115°
2026-04-30 21:54 25.02867 55.53108 8821 ft 311 kts 115°
2026-04-30 21:54 25.02005 55.55289 8823 ft 311 kts 119°
2026-04-30 21:54 25.00948 55.57356 8829 ft 310 kts 122°
2026-04-30 21:55 24.99826 55.59431 8830 ft 311 kts 123°
2026-04-30 21:55 24.98726 55.61453 8833 ft 310 kts 123°
2026-04-30 21:55 24.97616 55.63497 8834 ft 310 kts 123°
2026-04-30 21:55 24.96514 55.65528 8839 ft 310 kts 123°
2026-04-30 21:56 24.95394 55.67597 8840 ft 311 kts 123°
2026-04-30 21:56 24.94291 55.69610 8839 ft 310 kts 125°
2026-04-30 21:56 24.93047 55.71584 8843 ft 309 kts 128°
2026-04-30 21:56 24.91782 55.73495 8843 ft 309 kts 128°
2026-04-30 21:57 24.90506 55.75411 8889 ft 309 kts 129°
2026-04-30 21:57 24.89233 55.77323 9016 ft 310 kts 129°
2026-04-30 21:57 24.87963 55.79233 9036 ft 309 kts 129°
2026-04-30 21:57 24.86694 55.81144 9038 ft 309 kts 128°
2026-04-30 21:58 24.85435 55.83040 9035 ft 309 kts 128°
2026-04-30 21:58 24.84144 55.84977 9037 ft 309 kts 129°
2026-04-30 21:58 24.82854 55.86891 9131 ft 310 kts 129°
2026-04-30 21:58 24.81559 55.88804 9648 ft 313 kts 129°
2026-04-30 21:59 24.80211 55.90795 9971 ft 311 kts 129°
2026-04-30 21:59 24.78934 55.92680 10033 ft 310 kts 129°
2026-04-30 21:59 24.77584 55.94519 10047 ft 312 kts 135°
2026-04-30 22:00 24.74305 55.98026 10051 ft 353 kts 141°
2026-04-30 22:00 24.70513 56.01767 10061 ft 370 kts 141°
2026-04-30 22:00 24.68591 56.03688 10418 ft 375 kts 140°
2026-04-30 22:01 24.66671 56.05634 11063 ft 375 kts 140°
2026-04-30 22:01 24.64762 56.07587 11672 ft 376 kts 140°
2026-04-30 22:01 24.62809 56.09595 12255 ft 378 kts 139°
2026-04-30 22:01 24.60876 56.11587 12780 ft 381 kts 139°
2026-04-30 22:02 24.58968 56.13555 13067 ft 369 kts 140°
2026-04-30 22:02 24.57232 56.15401 13058 ft 353 kts 137°
2026-04-30 22:02 24.55512 56.17433 13052 ft 334 kts 134°
2026-04-30 22:02 24.54006 56.19331 13047 ft 316 kts 134°
2026-04-30 22:03 24.52597 56.21154 13045 ft 300 kts 133°
2026-04-30 22:03 24.51280 56.22872 13041 ft 285 kts 134°
2026-04-30 22:03 24.50416 56.23996 13046 ft 277 kts 134°
2026-04-30 22:03 24.49182 56.25589 13098 ft 272 kts 134°
2026-04-30 22:04 24.47928 56.27194 13409 ft 281 kts 134°
2026-04-30 22:04 24.46583 56.28896 13700 ft 302 kts 134°
2026-04-30 22:04 24.43674 56.32569 14260 ft 340 kts 134°
2026-04-30 22:05 24.42068 56.34602 14528 ft 357 kts 134°
2026-04-30 22:05 24.40399 56.36718 14791 ft 370 kts 134°
2026-04-30 22:05 24.38743 56.38830 14981 ft 357 kts 134°
2026-04-30 22:05 24.37274 56.40712 15012 ft 338 kts 134°
2026-04-30 22:06 24.35789 56.42614 15011 ft 321 kts 134°
2026-04-30 22:06 24.33041 56.46122 15418 ft 290 kts 135°
2026-04-30 22:06 24.31689 56.47829 15707 ft 305 kts 135°
2026-04-30 22:07 24.30257 56.49632 15988 ft 324 kts 134°
2026-04-30 22:07 24.28796 56.51613 16276 ft 343 kts 131°
2026-04-30 22:07 24.27319 56.53769 16564 ft 361 kts 130°
2026-04-30 22:07 24.25834 56.56019 16795 ft 376 kts 129°
2026-04-30 22:08 24.24284 56.58399 17038 ft 389 kts 129°
2026-04-30 22:08 24.22674 56.60874 17243 ft 401 kts 129°
2026-04-30 22:08 24.21042 56.63369 17485 ft 410 kts 129°
2026-04-30 22:08 24.19329 56.65972 17858 ft 416 kts 129°
2026-04-30 22:09 24.17628 56.68545 18258 ft 421 kts 129°
2026-04-30 22:09 24.15883 56.71174 18655 ft 424 kts 129°
2026-04-30 22:09 24.14162 56.73763 19022 ft 427 kts 129°
2026-04-30 22:09 24.12404 56.76402 19428 ft 430 kts 129°
2026-04-30 22:10 24.10622 56.79077 19830 ft 433 kts 129°
2026-04-30 22:10 24.08850 56.81734 20273 ft 435 kts 129°
2026-04-30 22:10 24.07041 56.84445 20676 ft 439 kts 129°
2026-04-30 22:10 24.05242 56.87139 21104 ft 441 kts 129°
2026-04-30 22:11 24.01570 56.92634 21976 ft 447 kts 129°
2026-04-30 22:11 23.99755 56.95345 22395 ft 450 kts 129°
2026-04-30 22:11 23.97897 56.98119 22799 ft 454 kts 129°
2026-04-30 22:12 23.96036 57.00897 23267 ft 456 kts 129°
2026-04-30 22:12 23.94154 57.03704 23624 ft 459 kts 129°
2026-04-30 22:12 23.92255 57.06536 23972 ft 462 kts 129°
2026-04-30 22:12 23.90348 57.09378 24315 ft 464 kts 129°
2026-04-30 22:13 23.88431 57.12233 24626 ft 467 kts 129°
2026-04-30 22:13 23.86500 57.15108 24918 ft 470 kts 129°
2026-04-30 22:13 23.84578 57.17967 25034 ft 475 kts 129°
2026-04-30 22:13 23.82602 57.20905 25041 ft 481 kts 129°
2026-04-30 22:14 23.80610 57.23865 25043 ft 483 kts 129°
2026-04-30 22:14 23.78589 57.26869 25041 ft 483 kts 129°
2026-04-30 22:14 23.76600 57.29825 25042 ft 483 kts 129°
2026-04-30 22:14 23.74633 57.32746 25045 ft 483 kts 129°
2026-04-30 22:15 23.72674 57.35713 25039 ft 484 kts 125°
2026-04-30 22:15 23.71267 57.39058 25043 ft 489 kts 109°
2026-04-30 22:15 23.70535 57.42663 25041 ft 491 kts 100°
2026-04-30 22:15 23.70123 57.46357 25038 ft 492 kts 97°
2026-04-30 22:16 23.69806 57.50089 25036 ft 492 kts 96°
2026-04-30 22:16 23.69474 57.53794 25037 ft 492 kts 97°
2026-04-30 22:17 23.68132 57.64862 25033 ft 491 kts 100°
2026-04-30 22:17 23.67607 57.68541 25032 ft 491 kts 101°
2026-04-30 22:17 23.66525 57.75879 25029 ft 491 kts 101°
2026-04-30 22:18 23.65975 57.79596 25032 ft 491 kts 101°
2026-04-30 22:18 23.64891 57.86938 25031 ft 491 kts 101°
2026-04-30 22:19 23.63807 57.94310 25019 ft 490 kts 101°
2026-04-30 22:19 23.63272 57.97949 25016 ft 488 kts 101°
2026-04-30 22:19 23.62193 58.05266 25006 ft 487 kts 101°
2026-04-30 22:20 23.61662 58.08856 25001 ft 487 kts 101°
2026-04-30 22:20 23.60581 58.16149 24995 ft 487 kts 101°
2026-04-30 22:20 23.60042 58.19774 24993 ft 487 kts 101°
2026-04-30 22:21 23.59500 58.23411 24991 ft 487 kts 101°
2026-04-30 22:21 23.59189 58.27058 24988 ft 489 kts 88°
2026-04-30 22:21 23.59775 58.30744 24993 ft 488 kts 71°
2026-04-30 22:21 23.61209 58.34050 24994 ft 486 kts 55°
2026-04-30 22:22 23.63423 58.36847 24992 ft 482 kts 38°
2026-04-30 22:22 23.66175 58.38839 24993 ft 476 kts 22°
2026-04-30 22:22 23.69356 58.39946 24993 ft 469 kts
2026-04-30 22:22 23.72526 58.40045 24993 ft 460 kts 349°
2026-04-30 22:23 23.75552 58.39193 24992 ft 451 kts 333°
2026-04-30 22:23 23.78221 58.37435 24992 ft 442 kts 316°
2026-04-30 22:23 23.80312 58.35048 25000 ft 438 kts 308°
2026-04-30 22:23 23.82401 58.32575 24992 ft 440 kts 311°
2026-04-30 22:24 23.84543 58.30256 24994 ft 441 kts 312°
2026-04-30 22:24 23.86738 58.27926 24994 ft 441 kts 312°
2026-04-30 22:24 23.88965 58.25571 24994 ft 441 kts 312°
2026-04-30 22:24 23.91197 58.23211 24972 ft 440 kts 312°
2026-04-30 22:25 23.93341 58.20949 24564 ft 433 kts 312°
2026-04-30 22:25 23.95478 58.18700 24287 ft 421 kts 312°
2026-04-30 22:25 23.97562 58.16514 24052 ft 409 kts 312°
2026-04-30 22:25 23.99623 58.14361 23841 ft 396 kts 312°
2026-04-30 22:26 24.03479 58.10356 23471 ft 373 kts 312°
2026-04-30 22:26 24.05333 58.08443 23277 ft 363 kts 312°
2026-04-30 22:26 24.07118 58.06610 23058 ft 351 kts 312°
2026-04-30 22:27 24.08902 58.04786 22840 ft 340 kts 312°
2026-04-30 22:27 24.10590 58.03069 22600 ft 326 kts 312°
2026-04-30 22:27 24.13793 57.99846 22104 ft 299 kts 312°
2026-04-30 22:28 24.16791 57.96868 21345 ft 285 kts 312°
2026-04-30 22:28 24.18255 57.95419 20876 ft 282 kts 312°
2026-04-30 22:29 24.22532 57.91185 19502 ft 274 kts 312°
2026-04-30 22:29 24.23954 57.89776 19044 ft 272 kts 312°
2026-04-30 22:30 24.29496 57.84266 17137 ft 266 kts 313°
2026-04-30 22:31 24.33512 57.80156 16013 ft 261 kts 307°
2026-04-30 22:32 24.35092 57.74924 15996 ft 249 kts 252°
2026-04-30 22:32 24.32849 57.72152 15995 ft 256 kts 205°
2026-04-30 22:33 24.27556 57.73284 16002 ft 278 kts 158°
2026-04-30 22:33 24.24071 57.75240 15998 ft 278 kts 158°
2026-04-30 22:34 24.18958 57.78051 16004 ft 279 kts 158°
2026-04-30 22:35 24.15478 57.79933 15998 ft 279 kts 158°
2026-04-30 22:36 24.08549 57.83656 15998 ft 279 kts 158°
2026-04-30 22:36 24.06787 57.84604 15998 ft 279 kts 158°
2026-04-30 22:37 24.01575 57.87408 16000 ft 279 kts 158°
2026-04-30 22:37 23.99829 57.88346 16001 ft 279 kts 158°
2026-04-30 22:37 23.96326 57.90228 16004 ft 279 kts 158°
2026-04-30 22:38 23.92874 57.92083 16004 ft 279 kts 158°
2026-04-30 22:38 23.89385 57.93955 16004 ft 279 kts 158°
2026-04-30 22:39 23.87644 57.94889 16004 ft 279 kts 158°
2026-04-30 22:39 23.82453 57.97672 16007 ft 279 kts 158°
2026-04-30 22:40 23.77269 58.00449 16004 ft 280 kts 158°
2026-04-30 22:41 23.72035 58.03251 16002 ft 280 kts 158°
2026-04-30 22:41 23.68545 58.05117 16004 ft 280 kts 158°
2026-04-30 22:42 23.61550 58.08855 16001 ft 280 kts 158°
2026-04-30 22:43 23.58067 58.10714 15998 ft 280 kts 158°
2026-04-30 22:43 23.54556 58.12588 15999 ft 280 kts 158°
2026-04-30 22:44 23.51068 58.14447 16000 ft 280 kts 158°
2026-04-30 22:45 23.44090 58.18165 16008 ft 279 kts 157°
2026-04-30 22:45 23.40585 58.20030 16013 ft 280 kts 157°
2026-04-30 22:46 23.37677 58.21578 16019 ft 280 kts 157°
2026-04-30 22:47 23.30704 58.25284 16035 ft 280 kts 157°
2026-04-30 22:47 23.27238 58.27125 16050 ft 280 kts 157°
2026-04-30 22:48 23.23796 58.28952 16062 ft 280 kts 157°
2026-04-30 22:49 23.18567 58.31724 16066 ft 280 kts 157°
2026-04-30 22:49 23.13324 58.34503 16066 ft 279 kts 157°
2026-04-30 22:50 23.06351 58.38196 16072 ft 279 kts 156°
2026-04-30 22:51 23.02792 58.38344 16066 ft 258 kts 217°
2026-04-30 22:51 23.01573 58.35047 16073 ft 251 kts 287°
2026-04-30 22:52 23.02543 58.33473 16075 ft 256 kts 322°
2026-04-30 22:52 23.06038 58.32688 15694 ft 264 kts 350°
2026-04-30 22:53 23.09552 58.31700 14766 ft 260 kts 336°
2026-04-30 22:53 23.12776 58.30027 13933 ft 254 kts 330°
2026-04-30 22:53 23.14312 58.29099 13503 ft 252 kts 329°
2026-04-30 22:54 23.17315 58.27180 12541 ft 250 kts 327°
2026-04-30 22:55 23.21827 58.24198 10692 ft 266 kts 327°
2026-04-30 22:55 23.25163 58.21974 9342 ft 288 kts 326°
2026-04-30 22:56 23.28971 58.21006 9051 ft 295 kts
2026-04-30 22:56 23.35020 58.22253 9022 ft 296 kts
2026-04-30 22:57 23.39081 58.22944 9014 ft 295 kts
2026-04-30 22:57 23.43148 58.23582 9005 ft 295 kts
2026-04-30 22:58 23.47214 58.24268 8996 ft 297 kts 15°
2026-04-30 22:59 23.49806 58.29758 9002 ft 303 kts 101°
2026-04-30 22:59 23.49172 58.36592 7843 ft 300 kts 89°